Location: Nijmegen RU
(51.8233°N, 354.1314°E)
Time: 17:05:24
(UTC+01:00)

Envisat - Pass Details

Date: 28 February 2019
Orbit: 764 x 766 km, 98.2° (Epoch: 18 March)

Event Time Altitude Azimuth Distance (km) Brightness Sun altitude
Rises 21:36:50 0° 221° (SW) 3,225 6.5 -24.5°
Reaches altitude 10° 21:40:32 10° 249° (WSW) 2,305 6.1 -25.1°
Maximum altitude 21:42:47 13° 276° (W) 2,114 6.2 -25.4°
Drops below altitude 10° 21:45:03 10° 302° (WNW) 2,313 6.5 -25.7°
Sets 21:48:48 0° 331° (NNW) 3,245 7.0 -26.3°
